Location: Gwatt
(46.7204°N, 7.6223°E)
Time: 02:05:34
(UTC+00:00)

S-56A Canister/Altair - Pass Details

Date: 24 June 2021
Orbit: 631 x 2501 km, 38.9° (Epoch: 02 August)

Event Time Altitude Azimuth Distance (km) Brightness Sun altitude
Exits shadow 02:22:44 11° 198° (SSW) 2,041 9.1 -10.0°
Maximum altitude 02:25:32 18° 159° (SSE) 1,586 8.9 -9.7°
Drops below altitude 10° 02:28:32 10° 116° (ESE) 2,004 9.9 -9.3°
Sets 02:31:27 0° 96° (E) 2,949 11.1 -9.0°
